Terminal Aerodrome Forecast
Issued by NWS

Home | Current Version | Previous Version | Graphics & Text | Print | Product List | Glossary On
Versions: 1 2 3 4 5 6 7 8 9 10 11 12
000
FTUS43 KBIS 032339
TAFMOT
TAF
KMOT 032339Z 0400/0424 31017G22KT P6SM SCT090
     FM040130 31005KT P6SM SKC
     FM040500 VRB03KT P6SM SKC
     FM041500 18009KT P6SM SKC=

USA.gov is the U.S. government's official web portal to all federal, state and local government web resources and services.